Wind_Speed
78 78 78 78 79 79 77 75 75 75 76 75 75 76 76 75 76 77 76 75 75 77 77 75 72 72 74 75 75 73 73 73 72 73 74 74 74 73 73 74 74 74 73 71 71 72 72 72 72 71 67 65 63 63 64 63 61 60 62 63 63 63 61 57 54 53 50 46 44 43 40 37 34 29 25 22 20 18 17 15 16 16 17 17 16
79 79 79 79 80 79 78 77 77 78 78 77 78 79 80 80 80 79 78 78 79 80 77 72 71 73 75 76 74 74 74 74 74 75 75 75 74 74 75 75 74 74 74 72 72 74 73 72 72 70 67 65 64 66 67 64 62 62 63 63 63 61 58 54 52 50 46 42 41 39 37 34 31 26 23 21 19 18 17 15 16 17 17 17 16
80 80 80 80 81 81 81 81 80 81 81 81 81 82 83 83 82 81 81 81 81 79 75 72 74 75 76 76 75 75 75 74 75 75 75 75 74 75 76 75 75 75 73 72 73 73 73 71 70 69 68 66 66 69 68 65 63 62 63 62 61 58 55 52 50 46 42 39 38 36 34 30 27 24 22 21 19 18 17 16 16 17 17 17 16
81 82 82 82 83 83 83 83 82 82 83 83 83 83 84 85 84 83 82 81 79 75 73 73 75 76 76 77 76 75 74 74 75 75 76 76 76 76 77 76 76 74 71 71 72 72 72 71 71 70 70 69 69 69 66 63 62 62 62 60 58 54 51 49 47 42 38 36 35 33 30 26 24 23 22 20 19 18 17 17 17 18 18 17 16
83 84 84 83 84 84 85 85 84 84 84 85 85 84 84 85 85 82 80 77 74 72 72 74 75 76 77 77 75 75 75 75 75 76 77 77 77 77 77 76 75 73 72 73 73 73 73 72 72 72 71 71 71 68 64 63 63 61 59 57 53 49 48 47 43 38 35 34 32 30 26 23 22 22 22 20 19 18 18 18 17 18 18 17 16
85 86 86 85 85 85 85 86 85 85 85 85 85 85 85 85 84 82 78 75 73 73 74 75 76 76 77 76 74 75 76 77 77 78 77 77 78 77 76 75 75 75 74 74 74 73 73 72 71 70 70 71 71 68 65 64 62 58 56 54 49 46 46 44 39 35 32 31 30 27 24 22 22 22 22 20 20 19 19 18 18 18 18 17 16
87 86 86 86 86 85 86 86 85 84 84 83 83 83 84 84 83 81 78 76 76 77 77 76 78 78 77 76 76 78 79 79 78 77 76 77 77 76 75 75 75 75 74 74 74 73 70 69 68 69 70 72 71 67 65 63 58 56 55 51 46 45 44 40 36 32 29 28 26 25 24 23 22 22 22 21 20 20 19 19 19 19 18 18 16
85 84 84 84 84 84 84 83 82 81 80 80 81 82 82 82 79 76 74 75 77 78 77 77 78 78 79 79 80 83 82 80 77 76 75 76 76 75 75 75 75 75 75 75 73 70 67 67 68 70 71 72 70 66 63 59 56 54 52 48 45 43 40 37 33 29 26 25 23 24 24 24 23 22 22 21 21 21 20 20 20 19 19 18 16
83 82 81 81 81 81 82 82 81 81 82 82 84 85 84 82 76 73 75 78 79 79 77 78 79 80 81 80 81 83 81 78 77 76 77 77 76 75 74 74 75 75 76 73 70 67 67 69 71 71 71 70 68 64 60 55 53 51 48 45 43 40 37 33 29 26 24 22 22 24 24 24 24 23 22 21 21 22 21 20 21 20 19 18 16
82 81 80 80 81 82 83 83 81 81 83 84 85 86 85 83 79 78 81 81 80 80 79 80 81 81 79 79 81 81 79 78 78 78 78 78 75 73 73 75 76 76 74 71 68 68 70 71 71 70 69 67 64 60 55 52 51 48 45 42 39 36 34 30 26 24 23 21 22 24 25 24 24 23 22 22 22 23 22 21 22 21 19 18 17
82 81 81 81 81 82 84 83 82 83 83 83 85 84 81 81 81 83 84 83 82 82 82 83 83 81 80 81 82 80 80 80 79 79 79 76 73 74 75 76 76 74 71 69 69 70 70 69 68 66 65 63 60 56 52 49 47 45 42 37 35 33 30 27 25 24 23 23 24 25 25 25 24 23 23 23 24 24 23 22 22 20 19 18 18
83 82 82 83 82 82 84 84 85 85 85 86 83 79 79 83 86 86 85 84 84 84 84 85 84 82 82 83 82 81 81 81 80 80 77 74 75 77 77 75 73 71 69 69 69 69 67 65 63 62 62 59 55 51 48 46 44 42 38 33 31 29 27 27 25 24 25 25 26 27 26 25 24 23 23 24 25 25 24 22 22 20 19 19 18
86 85 85 86 85 84 85 86 87 88 87 88 84 82 86 90 90 89 87 86 86 85 85 85 84 83 83 82 81 81 81 82 82 79 76 76 77 76 73 71 69 68 68 68 68 65 62 61 61 61 59 56 51 47 45 44 42 38 33 29 27 27 27 27 25 25 27 28 29 28 26 26 25 24 24 24 26 26 25 23 22 22 21 20 20
89 88 88 89 88 87 88 88 90 90 89 89 89 91 94 92 91 91 90 89 88 87 86 85 84 82 82 81 82 82 83 83 81 79 78 76 72 67 65 64 64 65 66 66 64 60 59 60 60 58 55 51 46 44 44 43 38 33 29 26 25 26 27 27 27 26 27 29 30 29 27 27 26 25 25 25 26 27 26 24 24 24 22 22 21
91 91 91 91 90 89 89 90 92 92 91 92 95 97 96 94 93 92 91 91 90 89 87 85 83 81 81 81 82 82 81 80 79 78 73 66 62 60 59 60 61 61 62 60 59 59 60 60 57 53 50 47 43 43 43 39 33 29 26 25 25 27 28 28 27 26 26 28 30 29 28 28 27 26 26 26 27 28 27 25 25 25 23 23 22
93 93 93 93 92 92 92 92 93 92 93 95 97 97 96 95 93 91 90 90 89 88 86 83 81 80 81 82 81 78 75 75 73 68 61 58 58 58 59 60 59 58 57 54 55 58 58 56 53 50 48 46 44 42 39 34 29 27 25 25 25 27 29 28 24 23 24 26 28 29 29 29 28 27 27 27 28 29 29 26 25 26 24 23 23
94 95 94 95 94 94 94 94 93 93 94 94 94 94 93 91 88 87 87 86 86 84 81 79 78 79 81 79 75 71 68 66 63 58 57 58 59 58 59 60 57 55 53 51 52 54 53 51 49 47 47 46 43 39 33 29 28 27 26 26 26 28 28 26 24 25 27 27 27 29 31 31 30 28 28 28 30 30 30 27 27 28 25 25 25
96 96 96 95 94 94 94 93 92 92 90 88 87 86 84 83 81 79 81 82 80 77 76 75 75 77 77 72 66 63 62 60 59 58 59 60 60 59 59 58 55 53 52 51 51 51 50 48 46 45 44 42 39 33 29 28 28 28 28 28 28 28 28 28 30 31 31 29 28 29 32 32 31 30 29 30 31 31 31 29 28 28 25 26 26
97 97 97 96 95 93 92 90 88 85 82 79 77 76 76 75 72 71 74 77 75 71 70 70 73 73 70 65 63 64 64 63 63 61 60 61 62 61 58 55 52 52 52 50 49 49 48 45 43 40 38 37 35 30 29 29 30 29 30 29 29 29 30 32 32 31 30 29 28 31 33 34 32 31 31 31 33 33 32 30 28 27 27 27 28
97 97 96 96 94 92 89 84 80 76 73 71 70 70 71 67 61 64 70 69 67 65 65 68 70 68 65 64 65 66 66 65 62 60 59 60 59 58 56 52 51 52 52 50 49 47 43 40 39 37 37 37 35 32 31 31 30 30 31 31 30 30 33 33 31 31 32 31 30 32 35 35 34 32 32 33 34 35 34 31 30 30 30 29 29
96 95 95 94 92 88 82 75 70 67 66 66 66 66 65 59 55 62 66 62 59 59 61 63 64 63 60 60 59 58 60 58 56 56 57 57 55 53 53 50 49 50 50 47 45 43 42 42 43 41 39 38 37 36 34 31 29 30 32 33 32 33 35 34 33 34 35 33 31 32 35 36 35 34 33 34 34 36 36 34 32 33 33 31 30
94 93 91 89 85 79 72 67 64 64 63 62 62 62 60 57 57 61 62 59 53 50 51 51 52 53 51 50 50 50 53 54 56 59 59 60 56 51 50 49 49 50 49 44 40 42 44 47 45 42 40 40 39 37 34 31 29 30 32 33 34 35 36 36 37 37 36 34 30 30 34 35 35 35 34 35 36 36 37 36 34 34 34 32 31
91 88 85 81 75 69 64 63 62 61 60 58 59 59 57 55 56 57 58 55 47 45 50 51 49 50 47 47 52 54 55 58 61 61 61 62 57 52 51 52 51 50 50 47 44 43 45 46 44 42 43 43 41 37 35 33 31 31 32 34 36 37 38 38 39 39 37 33 29 28 32 35 35 36 36 36 36 37 38 37 35 34 33 32 31
85 81 76 71 67 63 61 61 61 59 57 56 58 58 55 53 54 56 55 52 49 50 55 56 55 56 54 54 58 60 60 61 62 62 63 62 59 56 56 57 54 51 50 48 45 44 45 46 46 46 45 43 41 39 38 36 34 34 34 36 39 39 40 41 42 40 37 33 30 29 32 35 36 37 37 37 37 38 38 38 36 34 33 33 32
76 72 66 64 63 62 61 61 60 59 59 59 58 58 56 55 57 58 57 55 54 54 56 57 56 55 54 54 58 62 62 60 60 63 63 61 60 59 59 56 52 51 49 44 42 42 45 46 43 44 43 40 40 41 40 40 39 38 38 39 41 42 43 43 42 39 38 34 32 32 33 35 37 38 38 38 38 39 39 39 37 35 34 34 33
67 64 62 61 62 62 62 62 62 62 61 59 59 60 59 60 61 60 59 59 58 57 57 55 52 49 49 54 60 62 61 59 59 60 60 61 63 62 58 52 47 48 45 43 43 43 45 46 42 41 43 41 41 43 44 44 42 42 41 39 41 44 45 44 42 40 38 35 35 35 35 36 38 38 39 39 39 40 41 40 39 37 35 34 33
61 62 63 63 63 64 64 65 64 64 63 62 61 59 58 62 64 61 60 61 60 60 59 56 51 50 53 58 62 63 62 61 60 60 62 66 68 66 61 53 48 47 45 44 44 44 46 46 45 46 48 48 49 49 47 47 45 43 41 38 40 43 44 44 42 40 37 35 36 36 36 37 37 38 39 39 39 40 41 42 40 37 35 34 33
60 63 65 65 65 66 67 67 67 68 69 66 61 56 56 65 69 65 63 65 64 63 62 60 57 57 59 61 64 65 66 65 65 67 69 70 69 66 62 57 53 50 48 47 45 47 49 49 50 52 52 52 53 51 49 49 47 44 40 38 38 40 43 44 41 39 37 36 36 36 37 37 36 37 38 38 39 40 42 43 41 38 36 35 34
60 64 67 68 68 68 70 71 72 75 75 70 67 64 62 67 71 70 69 69 68 66 63 61 61 61 63 67 71 72 72 71 71 72 72 72 69 63 59 59 56 53 53 53 50 50 51 49 50 51 52 52 52 52 51 50 48 44 41 39 39 41 43 43 42 39 37 37 36 36 37 37 35 35 37 38 38 40 42 43 42 40 39 37 35
62 66 69 70 71 72 74 76 77 78 76 74 74 72 67 63 65 68 70 70 66 63 62 62 65 68 72 77 78 75 74 75 75 75 76 74 69 62 58 58 57 56 57 56 53 50 49 48 48 49 51 53 53 54 55 52 48 45 42 41 41 42 43 43 42 39 37 37 36 36 37 36 35 35 36 37 39 40 42 42 42 41 39 37 36
62 67 70 72 75 77 78 79 79 78 78 78 77 75 72 68 68 70 73 71 64 64 67 71 76 78 79 79 77 75 75 77 77 77 76 73 67 60 58 58 56 55 55 56 53 50 49 49 50 52 53 54 55 57 56 52 47 45 43 41 42 44 45 44 42 40 38 38 36 36 37 36 35 35 36 38 40 41 41 40 41 40 37 35 35
63 68 70 72 74 76 77 78 78 79 79 78 76 75 73 72 73 74 76 75 73 75 79 80 81 79 76 74 72 70 70 71 71 71 70 69 65 59 59 61 59 57 56 56 54 52 52 54 56 57 56 58 60 58 55 50 46 45 44 44 46 46 46 44 42 40 39 38 36 35 36 35 35 35 35 37 40 42 42 42 42 41 37 34 35
60 65 68 69 69 69 71 73 74 76 76 74 73 72 71 70 71 72 72 74 76 78 78 77 75 73 69 65 61 57 57 60 61 61 62 63 64 63 65 67 67 65 62 58 57 55 54 56 59 59 58 59 60 59 54 48 45 45 48 49 47 46 44 42 41 41 39 38 36 36 36 34 34 35 35 35 37 40 42 42 42 40 35 34 36
45 52 59 61 63 65 67 70 70 70 69 69 67 67 67 67 66 66 66 67 68 69 68 67 65 63 59 57 55 54 53 52 50 52 54 55 59 62 63 64 64 63 61 59 56 53 51 53 55 54 57 58 58 58 54 50 48 48 50 50 47 44 41 40 40 39 38 37 36 37 36 34 32 34 34 34 35 37 39 39 38 36 33 33 37
37 44 53 55 57 59 60 61 62 61 61 62 62 62 62 61 60 60 59 58 58 57 56 54 52 51 51 51 52 53 52 48 46 49 51 50 51 55 58 58 57 56 56 56 54 52 52 53 55 56 59 58 57 56 54 52 51 50 51 49 47 44 40 40 38 36 35 35 36 37 35 33 31 32 33 33 35 39 41 42 42 40 36 34 38
42 47 53 52 52 52 53 54 55 57 57 56 56 55 54 54 52 50 48 46 44 43 42 42 41 41 43 43 44 45 46 49 51 52 51 48 46 47 52 54 54 54 55 55 55 55 55 56 59 60 60 59 57 55 55 55 53 52 52 51 47 43 41 39 35 34 34 35 36 36 33 31 30 31 33 34 37 41 43 46 47 45 40 36 39
46 51 51 49 49 50 51 53 52 52 50 48 46 45 45 44 43 40 36 34 33 34 34 34 34 34 35 36 37 39 43 48 51 53 55 53 48 46 48 51 52 55 58 57 56 56 58 60 60 59 58 58 58 57 57 57 55 52 51 50 45 42 39 36 34 34 35 36 35 33 31 30 30 32 34 35 38 41 44 46 47 46 45 41 41
45 48 48 47 47 48 48 47 45 43 41 40 40 39 39 38 36 34 31 29 29 30 31 31 31 30 30 33 35 37 41 45 45 47 51 51 47 46 50 53 54 56 60 60 58 58 59 59 59 59 60 60 59 59 58 57 54 49 48 48 44 41 38 34 34 36 36 37 35 33 31 31 32 34 36 37 38 41 44 45 45 46 46 43 42
42 42 41 40 42 43 42 40 39 38 38 39 39 38 37 36 35 34 33 32 31 31 31 30 29 28 28 29 33 35 37 42 44 45 48 47 46 46 49 53 56 58 62 65 66 64 61 60 60 61 63 64 62 60 59 57 53 48 47 47 45 42 39 35 35 37 37 38 37 33 32 32 33 36 38 39 40 42 44 46 45 45 45 44 42
38 37 36 35 37 39 37 36 37 38 39 40 39 39 38 37 37 37 37 37 36 35 34 32 30 29 28 28 30 33 34 37 41 45 48 51 52 53 54 56 59 60 60 62 64 64 62 61 61 60 61 62 62 60 60 57 52 48 48 48 46 44 42 38 37 38 39 39 39 35 33 32 34 36 39 42 42 43 44 46 46 45 45 44 43
36 38 38 37 35 36 36 36 38 40 41 43 43 43 42 40 39 40 41 41 40 39 38 36 34 32 30 29 29 31 32 33 35 39 44 49 53 55 55 57 59 59 56 55 55 57 58 59 58 57 57 59 59 58 60 58 51 49 50 49 47 45 43 40 38 39 40 40 40 37 34 32 33 35 38 41 43 43 44 46 46 45 45 45 44
36 38 39 38 37 38 40 41 42 43 45 46 47 48 46 44 42 42 43 44 43 42 41 40 38 36 33 31 31 31 31 31 32 34 37 41 45 48 49 50 52 52 52 53 53 54 55 57 58 58 58 58 60 59 59 57 50 47 49 50 48 46 44 41 39 39 40 41 40 35 32 31 32 33 35 38 40 43 45 47 45 44 44 45 45
37 37 37 37 39 41 43 45 46 47 49 50 51 52 51 48 46 45 44 44 45 44 43 42 41 38 35 33 32 31 31 31 31 30 30 32 35 39 41 41 42 44 46 49 50 51 52 53 54 55 55 56 58 59 56 52 46 46 46 46 47 47 44 42 39 39 41 42 39 35 32 31 31 33 35 36 37 40 45 48 45 41 42 44 45
39 39 38 38 39 40 43 46 48 50 52 53 54 55 54 51 48 47 45 45 45 44 43 42 41 39 37 35 33 31 31 30 30 29 29 29 29 30 32 33 34 35 37 38 40 42 43 45 46 48 50 51 52 52 49 46 46 47 44 42 43 44 44 44 41 38 40 42 39 35 33 32 32 33 34 36 36 37 42 48 46 39 39 44 47
42 42 41 42 42 41 41 43 46 49 51 52 54 55 55 52 50 49 48 47 46 44 42 40 39 39 38 37 34 32 31 30 30 29 28 28 27 27 28 29 29 30 30 31 33 34 36 37 39 40 43 45 46 44 43 44 47 48 44 41 41 41 42 43 42 39 40 42 40 36 34 33 34 34 34 36 36 36 40 46 47 42 39 43 48
44 45 45 46 46 44 44 44 47 49 50 50 51 53 54 53 51 50 49 48 46 44 42 40 38 38 38 37 36 34 31 30 30 29 28 27 27 27 27 27 27 28 28 29 29 31 32 33 33 35 37 41 44 44 45 46 48 49 48 43 39 40 42 42 42 41 40 42 41 36 34 33 33 33 33 35 35 36 38 43 48 46 42 40 46
47 48 49 49 49 49 48 48 50 51 51 51 51 53 55 55 54 52 50 48 46 44 41 39 38 38 38 37 37 35 33 31 30 29 29 28 27 27 27 26 26 26 27 28 29 30 31 31 32 33 35 38 41 44 46 49 50 50 51 49 43 41 42 42 42 43 41 42 41 38 35 33 32 31 32 33 34 35 37 41 46 49 45 40 41
50 51 52 52 51 51 52 52 52 53 53 53 53 54 56 58 57 54 51 48 46 43 40 38 38 39 39 38 38 37 34 33 31 30 29 28 27 27 27 27 26 26 26 26 27 29 30 31 32 33 35 36 38 40 42 46 51 51 50 51 48 43 43 42 43 45 44 43 43 40 37 35 33 32 31 31 33 34 35 38 43 47 49 46 43
54 54 54 54 53 53 54 54 55 55 55 55 55 56 58 59 59 57 52 48 45 42 39 37 37 38 38 39 38 37 36 35 34 32 30 28 28 27 27 27 27 26 26 25 26 27 28 29 30 31 33 35 37 39 40 41 47 52 52 52 50 46 43 42 42 44 46 44 43 42 40 38 37 35 32 31 32 34 36 38 41 44 49 51 51
59 58 57 57 56 56 56 56 57 58 57 56 56 57 57 57 57 57 54 48 44 41 39 37 36 36 37 37 37 37 37 37 35 34 32 30 29 28 27 27 27 27 26 25 25 25 25 26 27 28 30 32 35 38 40 40 42 46 50 51 52 49 45 44 43 44 45 44 43 42 41 40 40 38 35 33 32 33 36 40 42 43 46 50 53
62 62 61 60 59 59 60 60 60 61 59 58 57 56 54 52 51 53 52 47 43 43 41 40 39 39 38 37 36 37 37 37 36 35 35 33 31 30 28 28 28 28 27 26 25 24 24 25 25 26 27 29 31 34 36 39 41 43 45 48 50 49 46 46 46 45 45 45 45 44 43 41 40 40 38 35 34 35 37 41 44 45 45 47 50
Wind_Direction
283 285 285 286 286 287 287 287 287 287 287 289 290 290 289 290 291 292 293 292 293 293 295 295 293 294 295 295 295 296 298 299 299 299 299 300 300 301 301 302 303 304 305 305 305 305 305 305 306 306 306 307 307 308 308 308 308 307 308 309 309 309 310 309 309 309 309 307 305 304 302 299 298 296 291 287 287 286 285 280 273 271 271 272 270
283 284 285 285 285 286 286 286 286 286 287 288 288 288 288 289 291 292 292 292 292 294 295 294 294 295 295 295 295 296 299 299 299 299 299 299 300 300 301 302 303 304 304 304 304 304 305 305 304 304 305 306 307 307 307 305 305 306 307 308 308 308 308 307 308 308 306 304 303 302 299 296 294 291 285 282 282 280 279 276 272 271 271 271 269
282 283 284 284 284 284 285 285 286 287 288 288 288 289 289 290 292 292 292 293 294 294 294 293 294 294 294 295 295 296 298 298 298 298 298 299 299 300 301 302 303 303 303 303 303 304 304 304 303 303 304 305 306 307 305 304 304 305 306 307 307 307 306 305 306 305 303 301 301 300 296 293 289 285 280 277 276 275 275 273 271 271 271 270 268
281 282 283 283 283 284 285 286 287 288 288 289 289 290 290 291 292 293 293 294 294 294 293 292 293 293 294 295 295 296 297 297 297 298 298 299 299 300 301 301 302 303 303 302 303 303 303 303 302 301 302 304 306 306 304 304 304 304 306 306 306 305 304 304 304 302 300 299 299 297 292 287 283 280 276 272 270 271 272 270 270 272 271 269 266
281 282 283 284 284 285 286 287 287 288 289 290 290 290 291 291 291 292 293 293 293 293 293 292 292 293 294 294 294 295 296 296 297 298 299 299 299 300 300 300 300 301 301 302 302 302 301 301 300 299 301 303 305 305 303 303 304 304 305 305 305 304 302 301 301 299 298 298 296 292 287 280 276 275 273 267 264 267 268 268 269 271 272 268 264
281 281 283 284 284 285 286 287 288 289 289 290 290 290 290 290 291 291 291 291 291 292 292 291 293 294 294 294 293 295 296 296 297 298 298 298 299 299 299 299 299 299 300 301 302 301 300 299 298 298 300 301 303 303 302 302 303 304 305 305 304 302 300 298 298 297 297 296 293 287 281 275 272 271 269 262 260 262 264 266 268 271 271 267 262
280 281 282 283 284 285 286 286 287 288 288 288 288 289 290 290 291 290 290 290 290 291 291 291 292 293 294 293 293 295 297 297 297 297 297 297 298 299 298 298 298 298 299 301 301 300 298 297 297 298 299 300 301 300 301 302 302 303 305 304 302 299 297 296 296 296 296 294 289 284 279 273 269 268 265 259 257 260 261 264 267 270 270 266 260
281 282 282 283 284 285 285 286 287 287 288 288 288 289 289 290 290 289 289 290 291 292 291 291 292 292 293 293 293 295 296 296 297 297 296 297 297 297 297 297 297 298 299 300 300 297 295 295 296 298 298 298 298 298 300 301 301 302 303 301 299 297 295 294 295 295 294 290 285 282 278 273 268 264 259 255 255 257 258 261 266 269 269 264 257
283 284 284 284 285 285 285 286 286 287 287 288 288 288 289 289 288 289 290 291 292 292 291 292 293 293 293 293 294 295 295 296 296 296 296 296 296 295 295 296 296 297 298 299 297 294 293 294 296 297 297 296 296 297 299 299 299 300 300 299 298 297 294 293 292 293 291 284 282 280 277 272 266 260 253 249 251 254 255 258 263 267 267 260 254
284 284 285 285 285 285 286 286 287 287 288 288 288 288 288 288 288 289 291 292 293 292 292 292 294 294 293 293 295 295 295 296 296 296 296 294 293 293 295 295 296 297 297 297 294 292 292 294 295 296 295 294 294 296 298 297 298 298 299 299 298 296 293 291 292 292 287 281 281 280 278 272 265 258 249 246 247 250 251 253 259 264 264 258 252
284 284 285 284 284 285 285 286 286 287 288 288 288 288 288 288 289 291 292 292 292 292 291 291 292 292 292 293 294 294 294 294 294 294 294 292 292 294 295 295 295 296 295 294 293 293 294 295 295 294 293 292 294 296 296 296 296 296 298 297 296 294 290 289 292 291 284 282 283 282 279 271 263 255 247 244 245 247 248 249 255 260 260 255 250
285 285 285 285 285 285 285 286 286 287 287 288 288 286 287 289 290 291 291 291 291 291 290 290 291 291 291 293 293 292 292 292 292 293 292 291 294 295 294 293 293 293 293 293 294 295 295 294 293 292 291 291 293 295 294 293 294 295 295 295 294 290 287 288 290 289 285 283 283 282 276 268 260 252 245 242 243 245 245 246 253 257 257 253 250
285 285 285 286 286 285 285 287 287 287 288 288 287 285 288 290 290 290 290 290 290 289 289 289 290 290 291 291 290 289 290 290 291 291 291 293 295 294 293 292 292 291 291 293 294 293 292 291 291 291 290 291 293 293 292 291 292 292 292 292 290 285 284 288 288 286 285 284 282 278 271 263 257 249 242 239 240 242 241 242 248 253 253 251 251
285 285 285 286 286 285 285 286 287 287 288 287 286 286 288 289 289 289 288 289 289 288 289 289 290 289 289 288 287 288 289 290 291 291 291 293 294 294 293 292 290 290 291 292 290 288 288 290 290 290 290 291 292 291 290 290 289 288 289 288 284 281 282 286 286 285 285 285 280 274 266 260 255 248 241 237 236 238 238 237 242 247 248 246 246
285 285 285 285 285 284 284 285 286 286 286 286 286 286 288 288 288 287 287 288 288 289 289 289 289 288 287 286 286 289 291 291 291 291 291 292 294 295 294 292 291 292 292 290 287 285 287 289 289 289 290 290 290 289 288 287 284 284 284 282 280 280 282 283 284 286 287 285 279 272 264 258 254 248 242 237 233 234 234 234 239 243 245 243 241
283 284 284 284 284 285 285 285 285 285 285 285 284 285 286 286 287 287 287 288 289 288 288 288 287 286 285 285 288 290 292 292 290 289 289 291 294 296 294 292 294 294 292 289 287 286 287 287 286 287 288 288 288 287 284 281 279 281 280 276 277 280 281 282 284 289 292 289 280 271 263 257 253 248 242 237 233 232 231 232 239 243 243 242 240
283 283 283 284 284 285 285 285 285 285 285 284 284 285 285 286 286 287 289 289 288 287 287 287 286 285 284 286 289 290 292 290 287 286 288 292 294 295 293 291 293 294 290 288 287 286 285 284 283 284 285 286 287 283 278 276 277 280 277 272 276 279 279 280 285 291 295 295 284 272 264 258 253 248 242 237 234 232 230 229 234 240 240 242 240
283 283 284 284 285 285 285 285 286 285 285 285 285 285 285 285 287 289 290 288 287 287 287 287 286 285 286 288 288 290 290 286 285 286 289 292 294 295 292 290 291 292 290 288 288 286 284 282 282 284 286 285 284 280 274 274 280 281 274 271 275 276 276 282 289 292 294 293 286 275 264 258 253 248 243 237 234 231 230 229 231 235 239 243 242
285 285 285 285 286 286 286 287 286 285 285 285 285 284 284 286 289 289 286 284 285 287 288 287 286 286 286 286 287 289 288 286 284 285 288 293 295 294 291 289 289 289 290 290 290 289 286 284 285 286 285 283 281 278 275 279 284 281 272 270 272 273 279 287 290 293 295 291 286 278 266 258 253 248 244 239 234 231 228 228 232 235 238 243 242
285 285 286 287 287 288 287 287 286 285 285 284 284 284 285 288 289 284 281 281 283 285 285 284 284 284 284 285 288 289 287 286 285 286 292 296 296 294 290 287 286 287 288 289 290 290 287 286 285 284 285 282 281 280 278 282 285 278 273 270 269 273 282 287 288 292 297 293 285 279 268 259 254 249 244 240 236 233 229 225 229 234 237 241 240
285 285 286 287 287 287 287 286 285 284 284 284 284 284 285 286 281 278 280 280 281 285 284 282 281 281 284 288 290 287 286 287 288 294 298 298 296 293 291 287 284 286 284 284 286 287 285 285 284 283 283 279 280 280 277 281 281 276 273 269 267 273 281 285 287 291 295 292 283 277 270 260 255 250 244 241 237 234 231 225 225 230 234 239 239
284 284 285 286 286 285 284 284 283 283 284 285 285 285 285 282 276 276 278 277 279 281 276 274 276 280 288 289 285 283 288 291 294 299 298 295 292 290 293 290 283 282 279 277 281 282 282 284 283 282 281 279 279 277 274 276 277 275 272 266 267 274 280 284 286 290 293 289 280 274 268 261 256 251 245 240 237 234 232 228 224 226 231 236 240
283 283 284 284 282 281 280 281 281 283 284 285 285 285 284 281 277 276 276 274 273 268 265 269 273 280 285 281 278 282 289 293 296 297 295 292 288 288 292 291 284 279 277 276 276 278 280 280 279 280 282 280 276 272 271 274 275 274 273 269 268 274 279 283 287 289 291 286 277 273 268 262 258 252 246 240 236 234 232 229 226 225 229 234 239
282 282 281 279 276 276 277 278 280 281 282 283 284 284 283 283 281 279 276 273 270 266 268 273 276 281 281 277 278 285 291 294 295 294 292 289 285 286 291 291 284 276 277 277 274 276 276 276 277 281 283 277 272 269 269 273 275 275 276 272 270 273 277 283 288 289 289 281 273 275 269 263 261 255 247 240 236 233 231 229 228 226 227 232 236
279 279 277 273 271 271 273 275 277 279 281 282 282 283 284 284 283 282 279 275 273 271 272 275 279 282 282 279 282 289 291 292 293 290 288 285 282 286 291 291 281 272 274 273 272 273 271 274 276 279 279 273 269 268 270 274 277 280 280 274 270 272 276 284 288 288 287 277 271 275 271 266 265 257 248 241 235 232 230 227 227 226 226 231 234
275 274 271 268 267 267 269 272 276 279 280 280 281 284 287 288 284 281 280 278 278 278 278 278 278 278 277 279 284 289 289 291 291 287 284 283 284 288 289 287 274 268 271 271 272 270 269 271 271 273 273 269 267 267 272 275 277 283 282 274 269 271 277 284 286 285 283 274 271 274 271 270 266 258 248 241 235 231 229 226 225 225 225 229 232
269 268 266 265 263 264 267 271 276 278 276 277 281 284 286 286 282 279 280 279 280 282 284 284 280 275 274 279 285 288 288 288 288 284 283 284 285 287 285 280 270 268 272 273 273 270 269 269 267 269 270 269 268 268 272 275 278 284 281 273 270 272 279 284 281 282 278 271 272 272 271 271 265 255 247 241 235 231 229 227 225 224 224 226 229
263 263 263 262 262 264 268 271 272 272 273 277 281 281 282 282 280 281 282 281 281 282 285 285 283 279 279 283 287 287 287 286 285 283 283 284 285 284 281 275 270 271 274 274 273 272 274 272 268 268 270 270 268 269 273 276 280 282 278 273 271 274 282 282 279 279 275 271 273 271 271 270 261 251 245 240 235 231 229 227 225 222 221 223 228
259 259 260 261 262 265 268 269 271 272 275 279 279 279 282 282 281 282 282 282 283 284 285 284 283 282 282 286 288 287 285 284 284 282 282 283 283 281 277 272 270 273 275 275 274 274 274 273 270 268 268 269 269 270 273 277 280 280 277 273 270 275 283 282 278 277 273 272 272 268 270 267 257 248 242 239 233 230 229 227 225 220 218 220 225
259 258 258 260 262 265 268 270 272 274 277 277 277 278 280 279 281 281 281 284 284 284 284 283 284 284 284 287 288 286 283 283 282 280 279 280 280 278 273 269 270 273 273 273 274 272 269 267 266 265 266 268 271 273 275 278 279 278 276 273 270 275 282 280 277 275 271 272 270 268 268 262 254 246 239 235 231 227 227 228 226 220 217 219 224
262 261 261 263 265 267 269 271 272 273 274 275 276 277 276 275 276 278 281 284 282 281 283 283 284 284 285 285 285 284 282 281 279 278 277 276 276 273 268 268 269 269 271 272 272 268 265 264 264 265 266 269 273 274 276 278 277 276 275 272 271 275 279 277 274 272 270 271 269 267 266 260 254 245 237 233 229 224 223 225 224 219 217 222 228
266 265 266 266 268 269 270 271 273 274 275 276 277 277 275 273 271 273 276 277 277 279 282 283 284 284 285 284 283 283 280 277 276 275 273 272 270 265 264 268 266 265 269 270 267 264 262 262 263 265 267 272 275 273 274 275 274 273 271 269 270 275 277 274 270 270 270 269 267 266 264 259 254 245 237 233 230 226 222 219 218 215 216 225 233
272 269 267 267 268 270 271 272 274 275 276 277 277 277 275 273 272 273 274 275 275 278 281 283 284 285 284 282 280 275 272 273 273 271 269 267 264 262 264 267 266 266 268 266 264 263 262 261 262 265 270 275 274 270 270 270 269 265 265 267 270 275 275 271 270 270 269 267 265 265 262 258 254 246 237 233 234 232 224 217 214 213 218 227 233
271 271 268 268 267 268 271 273 274 276 277 277 277 276 276 276 277 278 279 279 280 281 282 283 283 283 281 278 274 267 265 269 269 266 265 263 261 260 262 264 265 265 264 262 259 258 257 259 261 267 274 274 269 268 268 267 266 262 260 264 271 275 273 271 272 270 268 266 265 265 262 257 251 243 235 232 232 229 220 213 212 217 226 234 235
253 264 266 268 270 270 272 273 274 275 276 276 276 276 277 279 280 281 281 281 282 282 281 280 280 278 276 273 270 266 261 256 258 262 263 263 261 258 258 259 259 257 255 254 252 251 253 257 261 269 274 269 264 266 267 266 265 259 257 263 271 273 271 271 271 268 266 266 266 265 262 256 246 237 230 226 224 220 213 208 208 215 224 232 234
241 252 261 267 269 270 271 271 272 273 273 273 275 276 278 279 279 279 279 279 280 281 281 279 278 275 273 271 267 265 258 249 252 259 262 261 258 254 252 253 252 250 250 251 251 252 254 257 263 268 268 263 261 263 265 266 262 257 259 266 272 270 268 268 266 263 262 263 264 262 257 252 242 231 224 220 219 218 214 210 208 212 216 220 226
239 246 256 261 263 264 265 266 267 269 270 271 272 274 274 275 276 276 278 280 282 282 282 281 280 278 276 274 268 262 257 253 254 256 258 258 253 246 244 246 247 246 247 248 250 253 256 259 262 263 260 259 260 261 263 263 258 258 264 269 269 265 262 261 257 255 257 259 259 255 249 245 238 229 221 219 219 220 217 215 214 214 214 214 217
238 244 252 256 258 260 262 263 264 266 268 270 271 271 271 271 273 275 278 280 283 284 284 285 285 284 280 277 272 264 257 256 258 255 254 254 252 246 242 242 245 245 245 246 249 256 259 259 258 258 256 257 259 260 260 259 257 261 267 267 263 259 257 253 249 250 252 254 252 247 242 238 235 229 223 220 221 222 220 219 220 220 217 215 214
240 245 248 253 257 260 262 263 264 265 267 268 269 269 269 270 273 276 279 281 283 284 287 289 290 288 284 278 274 270 264 259 258 256 252 250 252 252 249 246 248 251 252 252 254 258 259 257 256 256 256 258 258 256 255 255 257 263 266 264 258 254 253 247 244 247 249 250 248 243 238 234 232 231 228 224 222 222 221 221 223 223 222 219 214
241 247 249 253 260 263 264 264 264 265 266 266 266 266 268 271 276 281 284 286 287 288 289 292 293 291 287 280 273 270 267 262 258 257 254 252 254 256 256 256 257 259 260 260 259 258 257 255 255 254 255 256 255 253 251 252 258 264 262 258 255 253 251 245 242 245 247 247 245 241 238 234 232 232 231 229 225 222 221 221 222 223 223 223 219
242 249 252 256 262 266 265 264 265 266 266 265 265 266 269 273 278 283 288 292 294 294 294 296 297 297 291 284 277 273 269 264 260 260 260 258 258 259 260 260 260 261 262 261 259 257 255 253 252 252 252 251 251 251 249 251 258 262 258 255 253 251 250 245 240 241 244 245 244 241 239 236 233 233 232 231 228 224 221 219 221 224 224 226 225
242 249 253 257 262 265 265 265 267 269 269 269 270 270 272 274 278 284 290 295 298 299 300 300 300 299 296 289 283 280 276 271 268 267 266 264 261 261 262 263 262 262 262 261 261 260 257 254 253 254 252 248 248 249 250 253 255 254 255 255 252 250 249 246 238 238 241 242 241 239 237 237 236 236 235 232 229 226 223 219 220 225 227 228 228
243 247 251 254 259 263 265 266 268 271 273 274 275 276 276 277 279 283 290 295 299 301 301 301 301 299 297 293 288 286 283 280 277 275 273 269 265 263 263 263 263 263 262 262 262 262 260 258 257 256 253 249 248 249 251 252 246 243 250 253 252 251 249 247 240 238 239 239 237 233 233 235 236 238 237 235 230 226 224 220 220 224 229 229 227
243 246 248 250 254 259 263 265 268 271 274 276 278 279 279 280 282 284 289 294 297 299 299 299 299 298 296 294 292 290 289 287 285 283 281 277 271 266 262 260 259 259 259 259 259 259 258 257 256 254 253 250 249 249 248 245 237 237 244 248 250 251 250 248 243 239 238 236 232 230 232 234 236 238 238 238 233 228 225 222 221 224 229 228 225
245 247 247 247 249 252 257 261 265 269 272 275 278 279 281 283 285 286 289 292 295 296 296 296 295 295 295 294 293 292 292 291 290 288 286 283 279 273 266 261 258 257 257 257 256 255 254 253 253 252 251 248 246 245 242 237 232 234 240 243 246 249 249 247 242 240 239 233 229 230 234 236 238 237 237 238 235 231 226 221 220 225 231 231 226
245 247 248 248 248 249 253 257 261 265 269 273 276 279 281 283 285 286 288 291 293 294 293 293 292 291 291 292 292 291 292 292 292 291 288 285 282 278 272 267 263 261 259 258 257 256 254 252 250 249 248 247 244 242 241 237 233 234 238 240 242 245 247 246 240 239 239 233 230 232 234 235 237 237 236 237 237 234 229 223 221 224 230 234 233
244 247 249 250 251 251 252 256 260 263 267 271 275 278 280 282 283 284 287 290 291 291 291 290 290 290 289 289 289 288 288 289 290 291 290 287 284 280 276 271 267 263 261 259 258 257 256 253 250 248 246 245 244 244 244 240 236 235 237 238 241 242 244 245 241 238 237 234 234 235 234 232 234 237 236 236 238 238 234 229 225 225 226 231 236
244 247 248 251 253 253 253 256 260 263 266 269 273 277 279 281 282 283 285 287 288 287 286 285 287 287 287 288 287 285 285 286 286 287 288 288 286 282 278 274 270 266 262 259 257 256 255 254 251 249 246 245 244 243 244 242 237 235 236 236 239 242 242 242 242 239 239 239 238 237 236 233 232 235 237 239 241 240 238 235 231 229 228 229 234
245 247 249 251 253 254 253 255 259 262 266 269 272 276 279 281 282 282 282 283 284 283 281 281 283 284 285 285 283 281 282 283 283 283 283 285 285 282 279 275 270 267 263 259 257 256 255 254 252 250 248 246 245 243 243 242 239 237 238 237 238 240 240 239 240 240 241 241 240 238 237 236 235 236 238 242 245 244 241 239 236 235 233 232 235
245 247 249 250 253 254 254 255 258 261 264 268 271 274 277 280 282 283 282 281 280 279 278 279 281 281 281 281 280 279 280 279 279 280 280 281 281 280 278 274 270 266 263 259 256 254 254 254 253 252 250 248 248 246 244 244 241 239 239 239 238 239 239 238 238 239 240 240 239 238 238 239 239 241 242 243 244 246 244 241 239 237 236 236 237
245 246 248 250 253 254 255 256 258 260 263 265 268 271 274 278 281 283 283 282 281 281 280 279 281 282 280 279 279 280 279 277 275 277 278 278 278 278 276 273 269 265 261 258 255 253 252 252 252 252 251 250 249 249 247 246 245 242 239 238 238 238 238 237 236 237 238 238 238 238 237 239 241 243 244 243 244 248 248 245 242 240 239 238 238
Height
10890 10891 10891 10890 10889 10889 10889 10889 10889 10889 10888 10887 10885 10883 10882 10882 10881 10880 10880 10879 10879 10879 10879 10878 10877 10876 10874 10872 10872 10872 10871 10869 10868 10867 10865 10863 10862 10861 10859 10859 10858 10857 10855 10854 10852 10851 10849 10847 10846 10845 10844 10844 10843 10842 10841 10840 10840 10838 10836 10834 10832 10831 10828 10825 10823 10820 10818 10817 10815 10814 10812 10810 10808 10808 10807 10807 10807 10806 10806 10806 10805 10805 10805 10804 10804
10886 10886 10886 10885 10883 10883 10883 10883 10884 10884 10883 10881 10880 10878 10877 10876 10876 10875 10875 10874 10874 10874 10874 10873 10871 10870 10868 10867 10867 10867 10866 10865 10863 10861 10860 10859 10857 10856 10855 10854 10853 10852 10851 10849 10848 10846 10844 10843 10841 10840 10840 10840 10839 10838 10836 10835 10834 10833 10831 10830 10828 10826 10824 10821 10819 10817 10815 10813 10812 10810 10808 10807 10805 10805 10805 10804 10804 10804 10804 10803 10803 10802 10802 10802 10802
10882 10881 10880 10879 10878 10878 10877 10877 10878 10878 10877 10875 10874 10872 10871 10870 10870 10870 10869 10869 10868 10868 10868 10867 10866 10864 10863 10862 10862 10862 10861 10860 10858 10857 10855 10854 10853 10851 10850 10849 10848 10848 10846 10844 10843 10841 10840 10838 10837 10836 10835 10835 10835 10833 10831 10830 10829 10828 10827 10825 10824 10822 10819 10817 10815 10813 10811 10809 10808 10807 10805 10804 10802 10802 10802 10802 10801 10801 10801 10801 10800 10800 10800 10800 10800
10877 10875 10874 10873 10872 10872 10871 10871 10872 10872 10871 10869 10868 10866 10865 10864 10864 10864 10864 10863 10863 10863 10862 10862 10860 10859 10858 10857 10857 10857 10857 10855 10854 10852 10851 10849 10848 10847 10845 10844 10843 10842 10841 10839 10838 10837 10835 10833 10832 10831 10830 10830 10830 10828 10826 10825 10824 10823 10822 10820 10819 10817 10814 10812 10811 10809 10807 10805 10804 10803 10802 10801 10799 10799 10799 10799 10799 10798 10798 10798 10798 10798 10797 10798 10798
10870 10868 10868 10867 10866 10865 10865 10865 10865 10865 10864 10863 10861 10860 10859 10858 10858 10859 10858 10858 10857 10857 10857 10856 10855 10854 10852 10852 10852 10852 10851 10850 10850 10849 10847 10845 10843 10842 10840 10838 10837 10837 10836 10834 10833 10832 10830 10828 10827 10826 10826 10825 10824 10822 10821 10820 10818 10817 10817 10815 10814 10812 10809 10808 10807 10805 10803 10802 10801 10799 10799 10798 10796 10796 10796 10796 10796 10796 10796 10795 10795 10795 10795 10795 10796
10863 10863 10862 10861 10860 10860 10859 10859 10859 10858 10857 10856 10854 10854 10853 10851 10851 10852 10853 10852 10852 10852 10851 10850 10849 10848 10847 10846 10846 10846 10846 10846 10846 10845 10843 10841 10838 10837 10835 10833 10832 10831 10830 10829 10828 10827 10824 10823 10822 10821 10821 10820 10819 10818 10816 10815 10813 10812 10811 10810 10808 10807 10804 10803 10802 10801 10800 10798 10797 10796 10795 10795 10794 10793 10793 10794 10794 10794 10793 10793 10793 10793 10793 10793 10793
10856 10858 10856 10855 10855 10854 10854 10853 10853 10852 10851 10850 10848 10847 10846 10845 10844 10845 10846 10846 10847 10846 10845 10844 10843 10842 10841 10841 10840 10840 10840 10841 10841 10840 10838 10836 10834 10831 10830 10828 10826 10825 10825 10824 10823 10821 10819 10818 10817 10816 10816 10815 10814 10813 10811 10809 10808 10807 10806 10805 10803 10802 10800 10799 10798 10798 10796 10795 10793 10793 10792 10792 10792 10791 10791 10791 10791 10791 10791 10790 10790 10790 10791 10791 10791
10849 10851 10851 10850 10849 10848 10848 10847 10847 10846 10845 10844 10842 10841 10840 10839 10839 10839 10840 10841 10841 10840 10839 10838 10837 10837 10836 10836 10835 10834 10834 10835 10835 10834 10833 10830 10829 10827 10824 10823 10821 10820 10819 10819 10818 10815 10814 10812 10812 10811 10810 10810 10809 10807 10806 10804 10803 10802 10801 10800 10798 10797 10796 10795 10795 10794 10793 10791 10790 10789 10789 10789 10789 10788 10788 10788 10788 10788 10788 10788 10788 10788 10788 10789 10789
10844 10844 10845 10845 10844 10843 10843 10842 10841 10840 10838 10837 10836 10834 10834 10834 10834 10833 10834 10835 10835 10834 10833 10832 10831 10831 10831 10830 10829 10829 10828 10828 10828 10828 10826 10824 10823 10821 10819 10816 10816 10815 10814 10813 10812 10810 10808 10807 10807 10805 10804 10804 10803 10802 10801 10799 10798 10797 10796 10794 10794 10793 10792 10791 10792 10792 10790 10788 10786 10785 10786 10786 10786 10785 10785 10785 10785 10785 10785 10786 10786 10786 10786 10786 10787
10839 10839 10840 10839 10838 10837 10837 10837 10835 10834 10832 10830 10829 10828 10828 10827 10828 10827 10827 10828 10828 10828 10827 10826 10826 10826 10826 10825 10824 10823 10822 10821 10821 10820 10819 10818 10816 10815 10813 10810 10809 10809 10808 10807 10806 10805 10803 10802 10801 10799 10799 10799 10798 10797 10796 10795 10794 10792 10791 10790 10789 10789 10788 10788 10789 10789 10787 10785 10783 10782 10783 10783 10782 10782 10782 10782 10782 10782 10783 10783 10783 10784 10784 10784 10785
10833 10834 10834 10834 10833 10832 10831 10830 10829 10827 10825 10823 10822 10822 10822 10821 10821 10820 10820 10821 10821 10822 10821 10820 10820 10821 10820 10820 10819 10818 10816 10814 10813 10812 10811 10810 10810 10809 10808 10805 10803 10803 10802 10801 10800 10799 10797 10796 10795 10794 10793 10793 10793 10792 10791 10791 10789 10788 10787 10786 10785 10784 10784 10785 10787 10786 10784 10782 10780 10780 10780 10779 10779 10779 10780 10780 10780 10780 10780 10780 10781 10781 10782 10782 10782
10826 10827 10827 10826 10826 10826 10825 10824 10822 10820 10818 10817 10817 10816 10815 10814 10813 10813 10813 10814 10815 10816 10815 10815 10815 10815 10815 10814 10813 10811 10809 10807 10805 10805 10804 10804 10804 10803 10801 10799 10797 10796 10795 10795 10794 10793 10791 10791 10790 10788 10787 10788 10789 10788 10786 10786 10785 10784 10783 10782 10781 10780 10780 10781 10783 10783 10781 10780 10778 10777 10777 10776 10776 10776 10777 10777 10777 10777 10777 10778 10778 10779 10779 10780 10780
10819 10820 10820 10819 10819 10819 10818 10816 10814 10812 10811 10810 10810 10810 10808 10807 10806 10806 10807 10808 10809 10809 10809 10809 10809 10809 10809 10807 10806 10804 10802 10800 10799 10798 10798 10798 10798 10797 10795 10793 10791 10789 10789 10788 10788 10787 10786 10785 10785 10783 10782 10782 10784 10784 10782 10781 10781 10780 10779 10778 10777 10776 10776 10777 10779 10780 10779 10777 10775 10774 10774 10773 10773 10773 10773 10774 10774 10774 10774 10775 10776 10776 10777 10777 10778
10811 10812 10813 10812 10812 10812 10810 10808 10806 10804 10804 10803 10802 10801 10799 10799 10799 10799 10800 10801 10801 10802 10802 10802 10803 10803 10802 10800 10798 10797 10795 10794 10793 10793 10793 10792 10791 10790 10789 10787 10785 10784 10783 10782 10782 10781 10780 10780 10780 10778 10777 10777 10780 10779 10777 10777 10777 10776 10775 10774 10773 10772 10772 10773 10775 10776 10775 10774 10772 10771 10771 10769 10769 10770 10770 10770 10771 10771 10771 10772 10773 10774 10774 10775 10775
10804 10805 10804 10804 10804 10803 10802 10801 10798 10797 10797 10796 10793 10791 10791 10791 10792 10793 10793 10793 10794 10794 10795 10795 10796 10795 10794 10793 10792 10791 10789 10788 10787 10787 10787 10787 10786 10785 10784 10782 10780 10778 10777 10776 10775 10775 10775 10774 10774 10774 10773 10773 10775 10775 10773 10772 10773 10773 10771 10770 10770 10768 10767 10768 10771 10772 10772 10771 10770 10768 10768 10766 10766 10767 10767 10767 10767 10768 10768 10769 10770 10770 10771 10771 10772
10798 10797 10797 10796 10795 10795 10794 10793 10791 10790 10789 10788 10786 10784 10784 10784 10785 10785 10785 10786 10786 10785 10786 10788 10788 10787 10786 10785 10785 10784 10783 10782 10782 10781 10782 10782 10781 10780 10779 10777 10774 10772 10770 10770 10769 10769 10769 10769 10769 10769 10768 10768 10770 10771 10769 10768 10769 10769 10767 10767 10766 10764 10763 10764 10767 10768 10768 10768 10767 10765 10764 10763 10763 10764 10764 10764 10764 10765 10765 10766 10767 10767 10768 10768 10769
10791 10790 10789 10788 10789 10788 10786 10785 10784 10783 10781 10779 10778 10777 10776 10776 10777 10778 10779 10778 10776 10776 10778 10780 10781 10780 10779 10779 10778 10778 10777 10777 10776 10776 10776 10776 10776 10775 10773 10771 10768 10766 10764 10763 10762 10762 10762 10763 10764 10764 10763 10763 10765 10766 10765 10765 10766 10765 10764 10763 10762 10760 10758 10759 10763 10764 10765 10765 10764 10762 10761 10760 10760 10761 10761 10761 10761 10762 10762 10762 10763 10764 10765 10765 10766
10783 10782 10782 10782 10782 10781 10780 10778 10777 10774 10772 10771 10770 10769 10768 10769 10773 10777 10774 10768 10766 10768 10772 10773 10773 10772 10772 10771 10771 10771 10771 10771 10771 10771 10771 10770 10770 10769 10767 10764 10762 10760 10757 10757 10756 10756 10756 10757 10759 10760 10759 10759 10761 10762 10762 10761 10762 10761 10760 10759 10759 10756 10754 10755 10759 10760 10761 10761 10760 10759 10757 10756 10757 10758 10758 10758 10758 10758 10759 10759 10760 10761 10761 10762 10763
10775 10772 10772 10772 10772 10771 10771 10771 10768 10765 10763 10762 10761 10761 10761 10764 10773 10775 10766 10758 10759 10764 10766 10766 10765 10764 10764 10764 10764 10764 10764 10764 10765 10765 10765 10764 10763 10763 10761 10758 10757 10754 10752 10751 10751 10751 10750 10751 10754 10756 10756 10756 10757 10758 10758 10758 10758 10758 10757 10756 10755 10752 10750 10751 10754 10756 10756 10757 10757 10755 10753 10753 10754 10755 10755 10755 10755 10755 10755 10756 10756 10758 10759 10759 10760
10769 10765 10764 10762 10761 10762 10762 10761 10758 10756 10754 10754 10754 10753 10756 10765 10771 10764 10755 10753 10757 10760 10761 10760 10758 10756 10756 10757 10757 10755 10755 10757 10758 10760 10759 10758 10757 10756 10754 10753 10752 10749 10747 10745 10745 10745 10746 10746 10748 10751 10752 10752 10753 10754 10754 10754 10754 10754 10754 10753 10751 10748 10746 10748 10750 10751 10752 10753 10753 10752 10749 10749 10750 10751 10752 10752 10752 10752 10752 10752 10753 10754 10756 10757 10757
10765 10762 10759 10756 10755 10755 10754 10752 10749 10747 10747 10747 10746 10747 10753 10762 10762 10752 10749 10751 10755 10758 10757 10753 10750 10749 10751 10751 10749 10747 10746 10750 10752 10753 10753 10751 10751 10750 10749 10749 10747 10745 10742 10740 10740 10741 10741 10742 10743 10745 10747 10748 10748 10749 10750 10750 10750 10750 10750 10749 10747 10743 10742 10744 10745 10746 10747 10748 10748 10748 10746 10745 10746 10747 10748 10748 10749 10749 10749 10749 10750 10751 10753 10754 10754
10759 10757 10755 10753 10752 10751 10748 10745 10742 10741 10741 10741 10740 10743 10749 10754 10752 10748 10747 10749 10754 10755 10749 10746 10744 10744 10747 10745 10742 10742 10741 10744 10746 10747 10746 10744 10745 10745 10744 10744 10743 10741 10738 10736 10735 10736 10737 10737 10737 10739 10741 10743 10744 10744 10744 10745 10745 10745 10746 10745 10743 10740 10739 10740 10741 10741 10742 10743 10743 10743 10742 10741 10742 10743 10744 10745 10745 10746 10746 10746 10747 10748 10749 10751 10752
10751 10750 10750 10750 10748 10745 10743 10739 10736 10736 10736 10736 10735 10737 10742 10745 10746 10744 10743 10745 10750 10746 10740 10741 10741 10741 10743 10737 10735 10739 10739 10739 10740 10741 10741 10738 10739 10741 10740 10739 10738 10736 10733 10732 10731 10732 10732 10732 10732 10733 10735 10737 10738 10739 10739 10740 10741 10741 10742 10741 10739 10736 10735 10735 10736 10736 10737 10738 10738 10739 10738 10737 10738 10739 10740 10741 10741 10742 10743 10743 10744 10745 10746 10748 10749
10741 10743 10745 10744 10741 10740 10737 10733 10731 10731 10731 10732 10731 10731 10734 10738 10740 10738 10737 10739 10740 10737 10736 10738 10737 10736 10735 10731 10730 10733 10734 10734 10734 10735 10734 10732 10733 10736 10735 10732 10732 10731 10729 10727 10726 10727 10727 10727 10727 10728 10729 10730 10732 10734 10734 10735 10736 10737 10738 10737 10735 10732 10730 10731 10732 10732 10732 10732 10733 10734 10734 10734 10734 10735 10736 10737 10738 10738 10739 10740 10741 10742 10744 10745 10746
10734 10736 10738 10737 10735 10734 10730 10726 10726 10726 10726 10725 10725 10726 10729 10732 10731 10729 10730 10732 10732 10733 10734 10734 10732 10729 10727 10726 10726 10726 10727 10728 10728 10727 10726 10724 10725 10729 10730 10727 10725 10725 10723 10722 10721 10721 10722 10722 10722 10723 10724 10725 10726 10728 10729 10730 10731 10732 10733 10733 10731 10727 10725 10726 10727 10727 10727 10727 10728 10729 10730 10729 10730 10731 10732 10733 10734 10734 10735 10736 10738 10739 10741 10742 10743
10729 10730 10730 10729 10728 10726 10722 10720 10721 10721 10719 10717 10718 10722 10726 10725 10720 10719 10722 10725 10727 10730 10730 10730 10728 10724 10722 10722 10721 10721 10721 10721 10722 10722 10719 10716 10716 10720 10723 10721 10720 10719 10717 10716 10715 10716 10716 10716 10716 10717 10718 10720 10721 10722 10724 10725 10726 10727 10728 10728 10727 10723 10721 10722 10722 10722 10722 10723 10723 10723 10724 10725 10725 10726 10727 10729 10730 10731 10731 10733 10734 10735 10737 10739 10740
10725 10723 10722 10721 10719 10717 10715 10714 10716 10716 10711 10708 10714 10721 10723 10715 10708 10710 10715 10718 10722 10725 10725 10725 10723 10720 10717 10716 10715 10716 10715 10715 10716 10715 10715 10713 10711 10713 10715 10715 10713 10712 10712 10710 10710 10710 10710 10711 10710 10711 10713 10715 10716 10716 10717 10719 10720 10722 10722 10723 10722 10719 10716 10716 10717 10717 10717 10718 10718 10718 10718 10719 10720 10721 10723 10724 10726 10727 10728 10729 10730 10732 10733 10735 10736
10720 10717 10715 10713 10710 10709 10710 10710 10708 10704 10700 10702 10712 10719 10717 10707 10701 10706 10709 10710 10716 10719 10720 10719 10717 10714 10712 10711 10710 10710 10708 10709 10709 10707 10708 10708 10707 10707 10708 10708 10706 10705 10705 10705 10704 10704 10705 10705 10706 10706 10708 10709 10710 10710 10711 10712 10714 10716 10717 10717 10717 10715 10712 10711 10711 10712 10712 10713 10713 10712 10713 10713 10714 10716 10717 10719 10721 10722 10723 10725 10726 10728 10729 10731 10733
10715 10713 10709 10705 10704 10704 10704 10703 10697 10693 10695 10700 10705 10710 10711 10704 10700 10702 10701 10703 10708 10711 10714 10714 10711 10709 10708 10705 10703 10704 10703 10702 10703 10700 10699 10699 10699 10700 10700 10699 10698 10697 10698 10698 10698 10699 10699 10700 10701 10702 10702 10703 10704 10705 10705 10706 10707 10709 10711 10711 10712 10711 10709 10707 10706 10707 10708 10708 10708 10707 10707 10708 10709 10711 10712 10714 10716 10718 10719 10720 10722 10723 10725 10727 10729
10709 10706 10703 10700 10699 10698 10697 10695 10693 10691 10692 10694 10697 10701 10705 10704 10700 10697 10693 10696 10700 10702 10705 10707 10705 10704 10704 10700 10695 10697 10696 10695 10696 10695 10692 10690 10692 10694 10693 10691 10690 10690 10690 10691 10692 10693 10694 10695 10696 10697 10697 10698 10699 10699 10700 10700 10701 10703 10704 10705 10706 10706 10705 10703 10702 10702 10703 10702 10703 10702 10702 10703 10704 10706 10707 10709 10711 10713 10715 10716 10718 10720 10721 10723 10725
10702 10699 10697 10696 10693 10691 10690 10688 10688 10688 10688 10688 10690 10693 10698 10700 10698 10694 10689 10689 10693 10695 10697 10699 10697 10697 10698 10695 10690 10690 10689 10688 10689 10688 10686 10684 10686 10688 10685 10684 10683 10683 10683 10685 10687 10688 10689 10690 10690 10691 10691 10692 10693 10694 10694 10695 10695 10696 10697 10699 10700 10701 10701 10700 10697 10698 10698 10698 10698 10698 10698 10699 10700 10701 10702 10704 10706 10708 10710 10713 10715 10716 10718 10720 10721
10696 10693 10691 10690 10687 10684 10682 10681 10680 10680 10681 10682 10683 10684 10688 10693 10693 10692 10689 10687 10687 10688 10689 10689 10687 10687 10690 10689 10687 10685 10681 10680 10681 10681 10679 10678 10680 10680 10678 10676 10675 10676 10677 10679 10681 10683 10684 10684 10684 10685 10686 10687 10688 10689 10689 10690 10690 10690 10691 10692 10694 10695 10696 10695 10694 10693 10694 10693 10693 10694 10694 10695 10695 10697 10698 10699 10701 10703 10705 10708 10710 10712 10714 10716 10717
10690 10686 10685 10684 10682 10679 10676 10675 10674 10673 10673 10675 10676 10676 10679 10683 10686 10686 10686 10684 10683 10683 10682 10681 10679 10679 10681 10683 10684 10680 10673 10672 10673 10672 10672 10671 10672 10672 10670 10668 10668 10669 10671 10672 10675 10676 10677 10678 10678 10679 10680 10681 10683 10684 10685 10686 10686 10686 10686 10686 10688 10690 10691 10691 10690 10690 10690 10689 10690 10690 10690 10691 10692 10693 10695 10696 10698 10700 10702 10704 10707 10709 10711 10713 10714
10687 10679 10678 10679 10678 10675 10673 10671 10670 10669 10669 10670 10671 10671 10672 10675 10679 10679 10680 10678 10677 10677 10676 10675 10674 10673 10674 10675 10675 10672 10669 10668 10665 10663 10664 10664 10664 10665 10664 10662 10661 10662 10663 10665 10668 10670 10671 10671 10672 10674 10675 10676 10677 10679 10681 10682 10682 10682 10681 10681 10682 10685 10686 10686 10686 10686 10686 10686 10686 10687 10687 10688 10689 10690 10692 10694 10696 10698 10700 10702 10705 10708 10710 10711 10712
10685 10675 10673 10674 10673 10671 10669 10667 10666 10666 10666 10666 10666 10666 10668 10670 10673 10674 10675 10673 10671 10671 10670 10670 10671 10669 10667 10667 10666 10665 10665 10662 10658 10656 10656 10656 10657 10658 10657 10656 10656 10657 10658 10659 10661 10664 10666 10667 10667 10669 10671 10672 10673 10675 10677 10678 10678 10677 10676 10676 10678 10680 10682 10682 10682 10682 10682 10683 10683 10683 10684 10685 10686 10687 10688 10690 10692 10694 10695 10697 10699 10702 10705 10707 10709
10682 10674 10670 10671 10669 10667 10666 10664 10664 10664 10663 10663 10663 10664 10665 10666 10668 10669 10670 10670 10668 10667 10666 10665 10666 10665 10663 10662 10660 10659 10659 10657 10654 10653 10650 10649 10651 10651 10651 10650 10651 10652 10654 10655 10657 10659 10661 10662 10663 10665 10666 10668 10669 10670 10672 10673 10673 10672 10670 10672 10674 10676 10678 10678 10678 10678 10678 10679 10679 10680 10681 10682 10683 10684 10685 10686 10688 10691 10692 10693 10694 10696 10698 10701 10705
10676 10671 10670 10669 10666 10664 10662 10662 10662 10661 10661 10661 10661 10662 10663 10663 10663 10664 10665 10666 10666 10664 10663 10662 10661 10661 10658 10657 10655 10654 10653 10652 10652 10649 10646 10644 10645 10645 10645 10645 10646 10647 10649 10650 10652 10654 10656 10658 10659 10660 10661 10662 10664 10665 10666 10667 10668 10667 10665 10667 10670 10671 10673 10674 10674 10674 10674 10675 10675 10676 10677 10678 10679 10680 10682 10683 10685 10687 10689 10691 10692 10693 10694 10696 10699
10670 10668 10667 10665 10662 10660 10658 10658 10658 10658 10657 10657 10658 10659 10660 10659 10658 10658 10660 10661 10663 10662 10661 10659 10658 10657 10654 10652 10650 10648 10647 10647 10647 10644 10641 10641 10640 10640 10640 10640 10641 10642 10643 10645 10648 10650 10652 10653 10654 10655 10656 10657 10658 10659 10660 10661 10662 10661 10660 10662 10665 10667 10669 10670 10670 10670 10671 10671 10671 10672 10673 10675 10676 10677 10678 10679 10681 10683 10685 10688 10690 10691 10693 10694 10696
10664 10663 10662 10660 10657 10655 10654 10654 10653 10653 10653 10653 10654 10655 10655 10655 10653 10653 10653 10655 10657 10658 10658 10657 10656 10654 10652 10648 10645 10643 10642 10641 10641 10638 10636 10634 10634 10635 10635 10635 10636 10637 10638 10639 10642 10645 10646 10648 10649 10649 10650 10651 10652 10653 10654 10656 10657 10655 10654 10657 10660 10662 10664 10665 10665 10666 10667 10668 10668 10668 10669 10671 10672 10673 10674 10676 10677 10679 10681 10684 10686 10689 10691 10693 10694
10657 10656 10655 10654 10652 10650 10649 10648 10647 10648 10648 10648 10649 10650 10650 10650 10649 10647 10646 10647 10649 10651 10652 10652 10652 10652 10650 10647 10643 10641 10639 10638 10635 10633 10631 10628 10627 10628 10629 10629 10630 10631 10632 10632 10634 10637 10640 10642 10643 10644 10644 10645 10646 10647 10649 10651 10651 10650 10649 10651 10654 10656 10659 10660 10661 10662 10664 10664 10664 10664 10665 10667 10668 10669 10671 10672 10673 10675 10678 10680 10683 10686 10689 10691 10692
10651 10649 10648 10648 10647 10645 10644 10643 10642 10642 10641 10641 10642 10643 10645 10646 10644 10642 10640 10640 10640 10642 10643 10644 10645 10646 10646 10644 10641 10638 10637 10635 10632 10628 10627 10624 10623 10623 10623 10623 10624 10625 10625 10625 10626 10629 10633 10636 10637 10638 10639 10639 10640 10642 10644 10646 10648 10646 10644 10646 10648 10650 10653 10656 10657 10658 10660 10661 10661 10661 10662 10663 10665 10666 10667 10668 10670 10673 10675 10677 10680 10683 10686 10688 10690
10645 10643 10643 10643 10641 10640 10639 10637 10636 10635 10633 10633 10635 10637 10640 10641 10640 10638 10636 10634 10634 10634 10635 10636 10637 10638 10639 10639 10637 10634 10632 10631 10628 10625 10623 10621 10619 10618 10617 10617 10618 10619 10619 10620 10621 10623 10626 10629 10630 10631 10632 10634 10635 10637 10639 10642 10645 10643 10639 10640 10642 10644 10647 10650 10653 10655 10656 10657 10658 10659 10659 10661 10662 10663 10664 10665 10667 10670 10672 10674 10677 10681 10683 10685 10687
10639 10637 10637 10637 10636 10635 10634 10632 10630 10629 10627 10627 10628 10629 10632 10634 10635 10634 10633 10631 10630 10629 10629 10629 10629 10630 10632 10632 10632 10630 10628 10626 10624 10621 10619 10617 10616 10615 10614 10613 10613 10614 10615 10616 10617 10619 10620 10622 10624 10625 10626 10628 10630 10632 10635 10636 10639 10639 10635 10634 10636 10639 10643 10646 10649 10651 10653 10653 10655 10655 10656 10657 10659 10660 10661 10662 10664 10667 10669 10670 10673 10677 10679 10681 10683
10633 10632 10632 10631 10631 10630 10629 10627 10625 10624 10622 10622 10622 10622 10624 10627 10628 10628 10629 10628 10627 10626 10625 10624 10624 10624 10624 10626 10626 10625 10623 10622 10620 10618 10616 10614 10613 10612 10612 10611 10611 10612 10612 10613 10615 10615 10616 10617 10618 10619 10620 10622 10624 10626 10629 10630 10632 10634 10633 10631 10631 10634 10638 10641 10644 10647 10649 10650 10651 10652 10653 10654 10655 10656 10658 10659 10661 10663 10665 10667 10669 10672 10674 10676 10677
10627 10626 10625 10624 10625 10625 10625 10623 10621 10620 10619 10619 10617 10616 10618 10621 10622 10622 10623 10623 10623 10623 10622 10621 10620 10619 10619 10619 10620 10620 10618 10617 10616 10615 10613 10612 10611 10610 10610 10609 10609 10609 10610 10611 10611 10612 10612 10613 10613 10614 10615 10616 10618 10621 10623 10625 10626 10629 10630 10629 10628 10629 10633 10636 10640 10643 10645 10646 10647 10648 10649 10650 10651 10653 10654 10656 10658 10660 10661 10664 10666 10669 10670 10671 10671
10621 10620 10618 10618 10619 10620 10620 10619 10618 10617 10616 10616 10614 10612 10613 10615 10617 10617 10617 10617 10617 10617 10617 10617 10617 10616 10616 10615 10615 10615 10614 10613 10611 10611 10610 10609 10608 10607 10607 10607 10607 10607 10607 10607 10608 10608 10608 10609 10609 10610 10611 10612 10614 10616 10618 10619 10622 10624 10625 10626 10626 10626 10627 10631 10635 10638 10641 10642 10643 10645 10646 10647 10648 10649 10651 10653 10655 10657 10658 10661 10663 10665 10666 10667 10667
10616 10614 10613 10613 10614 10616 10616 10616 10614 10613 10613 10613 10611 10609 10608 10610 10612 10613 10613 10612 10612 10612 10612 10612 10612 10612 10612 10612 10611 10611 10611 10610 10608 10608 10607 10606 10606 10605 10605 10605 10605 10605 10605 10605 10604 10604 10604 10605 10606 10606 10607 10608 10609 10611 10612 10614 10617 10619 10621 10622 10623 10623 10623 10627 10631 10633 10636 10638 10639 10641 10642 10643 10645 10646 10648 10650 10652 10654 10656 10658 10659 10660 10662 10663 10664
10611 10610 10609 10610 10610 10611 10612 10612 10611 10610 10610 10610 10609 10607 10605 10605 10606 10608 10610 10609 10607 10608 10608 10608 10607 10607 10608 10609 10608 10608 10608 10607 10606 10605 10604 10604 10603 10602 10602 10602 10602 10602 10602 10602 10602 10602 10601 10602 10602 10603 10604 10604 10605 10606 10608 10609 10611 10614 10616 10617 10619 10620 10620 10622 10626 10629 10632 10634 10636 10638 10639 10640 10641 10643 10645 10647 10649 10651 10653 10654 10656 10657 10658 10659 10661
10606 10606 10605 10606 10605 10606 10607 10608 10607 10606 10607 10607 10607 10605 10603 10601 10600 10601 10605 10605 10604 10604 10605 10605 10604 10604 10604 10605 10605 10605 10605 10604 10603 10602 10602 10601 10600 10599 10598 10598 10598 10598 10598 10598 10598 10598 10598 10599 10600 10600 10601 10601 10602 10603 10604 10605 10606 10608 10611 10613 10615 10616 10617 10619 10621 10624 10627 10630 10632 10634 10635 10636 10638 10639 10641 10644 10645 10648 10649 10650 10651 10652 10654 10655 10655
10602 10601 10602 10602 10601 10601 10602 10604 10603 10604 10605 10605 10605 10604 10602 10598 10594 10592 10596 10600 10600 10599 10600 10600 10600 10600 10600 10601 10601 10602 10602 10601 10600 10599 10598 10598 10597 10596 10595 10595 10594 10595 10595 10595 10595 10595 10596 10596 10597 10597 10598 10598 10598 10599 10600 10601 10602 10604 10606 10608 10610 10612 10613 10615 10617 10619 10622 10625 10627 10629 10631 10632 10634 10635 10638 10640 10642 10644 10645 10645 10646 10647 10648 10649 10650
10597 10597 10598 10598 10597 10597 10598 10600 10600 10600 10602 10602 10602 10601 10598 10595 10591 10586 10586 10592 10594 10594 10594 10594 10594 10594 10595 10596 10597 10597 10598 10598 10597 10596 10595 10595 10594 10593 10592 10592 10591 10591 10591 10592 10592 10592 10593 10593 10594 10595 10595 10595 10595 10596 10596 10597 10599 10600 10601 10603 10605 10607 10609 10611 10612 10615 10618 10620 10622 10624 10626 10628 10630 10631 10633 10636 10637 10639 10639 10640 10640 10641 10643 10645 10647